Вернуться в каталог

COSMOS 2251 DEB

АктивенLEO
NORAD 34732·DEBRIS·🇷🇺 Russia

Запущен Jun 16, 1993 с Plesetsk Cosmodrome

Loading…

Ближайшие Пролёты (ближайшие 24 часа)

TLE

СвежийSource: Space-Track

Эпоха: Sep 14, 2026, 13:51 UTC

1 34732U 93036ZA  26257.57722115  .00000214  00000-0  65059-4 0  9998
2 34732  74.0443 297.6334 0039009  16.5223 136.0652 14.47520874921341

Отслеживайте COSMOS 2251 DEB в реальном времени с AllMySat

Download on the App Store